Location: *
(46.1866°S, 178.5290°W)
Time: 13:22:18
(UTC+00:00)

Cosmos 724 - Pass Details

Date: 19 May 2021
Orbit: 848 x 947 km, 65.6° (Epoch: 21 June)

Event Time Altitude Azimuth Distance (km) Brightness Sun altitude
Rises 06:44:49 0° 215° (SW) 3,453 7.8 -23.4°
Reaches altitude 10° 06:47:18 10° 212° (SSW) 2,517 7.0 -23.8°
Maximum altitude 06:53:07 68° 128° (SE) 940 4.2 -24.8°
Enters shadow 06:53:42 64° 93° (E) 970 4.1 -24.9°
